This is the latest recevied weather packets stored in our database for station/object OE-11213. If no packets are shown the sender has not sent any weather packets the latest 10 day(s).
| Time | Temp. | Humidity | Pressure | Rain* | Wind** | Luminosity | Snow |
|---|---|---|---|---|---|---|---|
| 1787940329 | 31.11° C | 33% | 1008.7 hPa | 0 mm | - | 7 W/m² | - |
| 1787939729 | 31.11° C | 32% | 1008.5 hPa | 0 mm | - | 7 W/m² | - |
| 1787938903 | 31.67° C | 32% | 1008.5 hPa | 0 mm | - | 7 W/m² | - |
| 1787938530 | 31.67° C | 32% | 1008.6 hPa | 0 mm | - | 15 W/m² | - |
| 1787937930 | 31.67° C | 31% | 1008.7 hPa | 0 mm | - | 22 W/m² | - |
| 1787937103 | 31.67° C | 30% | 1008.3 hPa | 0 mm | - | 29 W/m² | - |
| 1787936729 | 32.22° C | 29% | 1008.3 hPa | 0 mm | - | 36 W/m² | - |
| 1787936129 | 32.22° C | 28% | 1008.2 hPa | 0 mm | - | 51 W/m² | - |
| 1787935303 | 32.78° C | 28% | 1008.3 hPa | 0 mm | - | 65 W/m² | - |
| 1787934930 | 32.78° C | 28% | 1008.2 hPa | 0 mm | - | 80 W/m² | - |
| 1787934330 | 32.78° C | 27% | 1008.2 hPa | 0 mm | - | 94 W/m² | - |
| 1787933503 | 32.78° C | 27% | 1008.1 hPa | 0 mm | - | 109 W/m² | - |
| 1787933130 | 33.33° C | 26% | 1008.1 hPa | 0 mm | - | 109 W/m² | - |
| 1787932530 | 33.33° C | 26% | 1008.1 hPa | 0 mm | - | 138 W/m² | - |
| 1787931703 | 33.89° C | 25% | 1008.2 hPa | 0 mm | - | 261 W/m² | - |
| 1787931330 | 33.89° C | 25% | 1008.2 hPa | 0 mm | - | 305 W/m² | - |
| 1787930730 | 34.44° C | 26% | 1008.2 hPa | 0 mm | - | 334 W/m² | - |
| 1787929903 | 34.44° C | 27% | 1008.5 hPa | 0 mm | - | 363 W/m² | - |
| 1787929529 | 33.89° C | 28% | 1008.5 hPa | 0 mm | - | 392 W/m² | - |
| 1787928929 | 34.44° C | 28% | 1008.8 hPa | 0 mm | - | 428 W/m² | - |
| 1787928103 | 34.44° C | 28% | 1009 hPa | 0 mm | - | 464 W/m² | - |
| 1787927729 | 34.44° C | 28% | 1008.9 hPa | 0 mm | - | 486 W/m² | - |
| 1787927129 | 34.44° C | 28% | 1009 hPa | 0 mm | - | 493 W/m² | - |
| 1787926303 | 34.44° C | 30% | 1009 hPa | 0 mm | - | 508 W/m² | - |
| 1787925930 | 33.89° C | 32% | 1009.1 hPa | 0 mm | - | 529 W/m² | - |
* Rain latest hour (hover to see other rain measurements)
** Current wind speed in m/s (hover to see current wind gust speed)